ATLAS 5 CENTAUR DEB, 44670

Orbit data source: Space-Track

ATLAS 5 CENTAUR DEB, 44670 is space debris in HEO originally from a launch on Wed, 17 Oct 2018 UTC launched from the Air Force Eastern Test Range (AFETR). Debris objects in space refer to the collection of defunct objects orbiting the Earth. Examples of debris include non-operational satellites, rocket bodies, and fragments generated from explosions, collisions, or faulty payload assembly.

Loading next visibility...
Identifier
44670, 2018-079AG
Orbit
HEO
Country
Flag of USUS
Related business
Flag of USUnited Launch Alliance/Lockheed Martin (US)
Manufacturer
ULA Decatur
Mission
Spacecraft
Bus & Motor
Unknown
Mass
Unknown
Launch date (UTC)
2018-10-17 (7 years ago)
Launch vehicle
Unknown
Launch site
Air Force Eastern Test Range (AFETR)
Object type
Payload
Rocket body
Debris
Shape & HBR
Unknown
Radar Cross Section
Large (>1 m²)

Expand to show TLE details & history
Last TLE update: 1 day ago

TLE from 1 day ago
0 ATLAS 5 CENTAUR DEB
1 44670U 18079AG  25259.61599432 -.00000189  00000-0  00000-0 0  9997
2 44670  12.9907  58.6042 4637617 270.4002  38.5980  1.82911743 42055
Epoch: 2025-09-16T14:47Z
TLE epoch observation values (Epoch: 2025-09-16T14:47:01.909Z)
Latitude
-0.00008°
Longitude
-158.88871°
Altitude
15,696.25 km
Speed
4.691 km/s
True Right ascension
03h 54m 41s
True Declination
0° 00' 00"
Sunlit
Object was in daylight at epoch
Visualization orbit readout
Latitude
Unknown
Longitude
Unknown
Altitude
Unknown
Speed
Unknown
Apparent Right ascension
Unknown
Apparent Declination
Unknown
Sunlit
N/A
Visualization observer readout
Local Sidereal Time
13:24:57
Azimuth
Unknown
Elevation
Unknown
Doppler factor
Unknown
Orbital elements
Apogee altitude
34,965.622 km
Perigee altitude
8,767.844 km
Semi-major axis
28,244.87 km
Eccentricity
0.46376
Inclination
12.9907°
RAAN
58.6042°
Arg. of periapsis
270.4002°
True anomaly
89.66761°
Mean anomaly
38.598°
Eccentric anomaly
62.0758°
Mean motion
0.45723 °/min
Orbital period
787.35 mins
BSTAR
0
Loading maneuver chart data...
Computing Atmospheric mass density...

Documentation

Showing up to 5 results
|